{"data":{"norad_id":56507,"intl_designator":"2023-065E","name":"STARLINK-5333","alt_names":[],"object_type":"PAYLOAD","status":"ACTIVE","operator":null,"country":"US","launch_date":"2023-05-14","launch_site_code":"AFETR","launch_vehicle":null,"mission":null,"orbit_class":"UNKNOWN","rcs_meters":null,"size_class":null,"mass_kg":null,"dimensions":null,"purposes":["comms"],"wikipedia_slug":null,"has_3d_model":false,"image_url":null,"decayed_at":null,"tle_current":{"epoch":"2026-05-24T21:57:30.554208Z","epoch_age_seconds":82173,"freshness":"FRESH","line1":"1 56507U 23065E   26144.91493697  .00000399  00000+0  24012-4 0  9997","line2":"2 56507  43.0029 109.2430 0001221 261.7458  98.3255 15.27578371168633","mean_motion":15.27578371,"eccentricity":0.0001221,"inclination_deg":43.0029,"raan_deg":109.243,"arg_perigee_deg":261.7458,"mean_anomaly_deg":98.3255,"bstar":2.4012e-5,"rev_number":16863,"period_min":94.266849239122,"perigee_km":482.21622243811,"apogee_km":483.89172527392,"semimajor_km":6861.190973856,"source":"CELESTRAK","updated_at":"2026-05-25T13:38:18.078296Z"}}}